Weather in Chinandega

Nicaragua     12°37′32″N   87°07′49″W
temp.,
°C
wind,
m/s
gust,
m/s
humid.,
%
clouds,
%
prec.,
mm/h
press.,
hPa
HPBL,
m
1 march, mon
mon100:00+24ene386841 0.0 1012283
03:00+21ne25790 0.0 1011132
06:00+20ne258510 0.0 1012144
09:00+30ne69373 0.0 10131290
12:00+36ene47211 0.0 10112393
15:00+38ene57210 0.0 10072963
18:00+32ene49338 0.0 1009518
21:00+27e395226 0.0 1012287
2 march, tue
tue200:00+24ene236615 0.0 101392
03:00+21ne24780 0.0 1011104
06:00+20ne23870 0.0 101264
09:00+30ene57438 0.0 10131212
12:00+38e472352 0.0 10112762
15:00+36ene252893 0.0 10081968
18:00+30ssw134692 0.0 1009138
21:00+26e395483 0.0 1012328
3 march, wed
wed300:00+23ne116656 0.0 101323
03:00+22ene247269 0.0 1012101
06:00+20ene238142 0.0 101352
09:00+30ene46390 0.0 10151127
12:00+37ene47160 0.0 10122557
15:00+37sse14210 0.0 10092319
18:00+29ssw234227 0.0 1010175
21:00+24wnw016718 0.0 101324
4 march, thu
thu400:00+24nne116914 0.0 101424
03:00+24ese126483 0.0 101336
06:00+22ne127668 0.0 101423
09:00+32ne35423 0.0 10161299
12:00+35ne363117 0.0 10122398
15:00+34sw453672 0.0 10091117
18:00+27sw245771 0.0 101090
21:00+24w017944 0.0 101324
5 march, fri
fri500:00+23e118026 0.1 101324
03:00+22e127414 0.0 101224
06:00+21ene12797 0.0 101224
09:00+31ne35415 0.0 10141102
12:00+39e24196 0.0 10112438
15:00+33sw66365 0.0 1007694
18:00+27ssw47583 0.0 1008337
21:00+22nw11880 0.0 101123